Regional Weather Roundup
Issued by NWS State College, PA

Home | Current Version | Previous Version | Text Only | Print | Product List | Glossary On
Versions: 1 2 3 4 5 6 7 8 9 10 11 12 13 14 15 16 17 18 19 20 21 22 23 24 25 26 27 28 29 30 31 32 33 34 35 36 37 38 39 40 41 42 43 44 45 46 47 48 49 50
443
ASUS41 KCTP 231710
RWRCTP

REGIONAL WEATHER ROUNDUP
NATIONAL WEATHER SERVICE STATE COLLEGE PA
100 PM EDT SAT JUL 23 2016

Note: "fair" indicates few or no clouds below 12,000 feet with no
significant weather and/or obstructions to visibility.

* = STATION THAT DOES NOT REPORT PRECIPITATION /E.G. RAIN...SNOW...ETC/
    THUNDER OR FOG.

PAZ002>004-007>009-013>016-020>023-029>032-231800-
WESTERN PENNSYLVANIA

CITY           SKY/WX    TMP DP  RH WIND       PRES   REMARKS
ERIE           SUNNY     83  70  64 W10       29.98S
MEADVILLE      SUNNY     86  58  38 NW7       30.02S
FRANKLIN*      SUNNY     86  63  45 W7        30.04S
NEW CASTLE     FAIR      89  69  51 N8        30.00F
BEAVER COUNTY  PTSUNNY   91  68  46 NW8       30.01F HX  95
BUTLER*        MOSUNNY   90  72  55 NW7       30.03S HX  96
PITTSBURGH INT MOSUNNY   88  68  51 SW8       30.00F
PITTSBURGH     PTSUNNY   88  70  55 W9G17     30.00F
INDIANA*       MOSUNNY   88  73  62 W9        30.03F HX  96
LATROBE        PTSUNNY   84  73  70 SW10      30.02F
WASHINGTON CO* PTSUNNY   88  72  58 W6        30.02F
$$

PAZ004>006-010>012-017>019-024>028-033>037-041-042-045-046-049>053-231800-
CENTRAL PENNSYLVANIA

CITY           SKY/WX    TMP DP  RH WIND       PRES   REMARKS
BRADFORD       SUNNY     84  55  36 NW14G21   30.03F
DUBOIS         MOSUNNY   88  58  36 NW13      30.02S
CLEARFIELD     MOSUNNY   89  64  43 W7        30.00F
JOHNSTOWN      CLOUDY    81  67  62 NW10      30.06F
ALTOONA        MOSUNNY   91  65  41 NW16      30.00F
STATE COLLEGE  MOSUNNY   90  64  43 W14G22    29.97F
WILLIAMSPORT   SUNNY     94  55  26 SW14G20   29.88F
SELINSGROVE    MOSUNNY   93  67  42 NW8       29.91F HX  96
FT INDIANTOWN  SUNNY     93  66  40 W12G17    29.90F HX  96
CAPITAL CITY   MOSUNNY   96  66  37 NW13      29.89F HX  99
HARRISBURG     MOSUNNY   93  69  45 NW6       29.89F HX  98
YORK           PTSUNNY   91  73  55 VRB7      29.92F HX  99
$$

PAZ038>040-043-044-047-048-054-055-060>062-067>071-231800-
EASTERN PENNSYLVANIA

CITY           SKY/WX    TMP DP  RH WIND       PRES   REMARKS
SCRANTON       SUNNY     93  55  27 NW15G21   29.90F
MOUNT POCONO   SUNNY     84  32  15 NW12G20   29.96F
ALLENTOWN      SUNNY     93  59  31 W14G21    29.90F
QUAKERTOWN*    SUNNY     93  57  29 CALM      29.91F
READING        SUNNY     94  60  32 NW16G23   29.88F
LANCASTER      MOSUNNY   90  69  50 W13       29.90F
COATESVILLE    MOSUNNY   88  72  58 W7G14     29.94F
POTTSTOWN      MOSUNNY   92  63  38 VRB5      29.90F
BLUE BELL      SUNNY     91  64  40 W6        29.87F
DOYLESTOWN     SUNNY     91  57  31 W10       29.88F
WILLOW GROVE   NOT AVBL
NORTH PHILA    MOSUNNY   96  66  37 VRB7G17   29.88F HX  99
PHILADELPHIA   MOSUNNY   92  69  47 W12G21    29.89F HX  97
$$




USA.gov is the U.S. government's official web portal to all federal, state and local government web resources and services.